Location: Aleksandrovka
(51.0767°N, 71.7483°E)
Time: 11:10:47
(UTC+00:00)

Daily predictions for brighter satellites

Satellite Brightness Start Highest point End
(mag) Time Altitude Azimuth Time Altitude Azimuth Time Altitude Azimuth
Cosmos 1833 Rocket 4.3 12:01:13 10° SE 12:04:01 14° E 12:06:39 10° ENE
Spot 1 4.3 12:01:47 10° NNE 12:06:18 67° ESE 12:11:04 10° S
RESURS DK-1 4.1 12:02:55 10° WSW 12:06:28 27° NW 12:10:02 10° NNE
Cosmos 1777 Rocket 4.3 12:01:43 10° NNW 12:07:00 74° WSW 12:12:16 10° SSE
SL-08 R/B 3.3 12:03:07 10° NNE 12:07:56 83° ESE 12:12:37 10° SSW
USA 276 2.2 12:05:08 10° W 12:08:16 72° S 12:11:22 10° E
CZ-4B R/B 3.9 12:05:03 10° ESE 12:09:46 31° ENE 12:14:27 10° N
USA 306 3.0 12:08:07 10° SW 12:12:20 68° SSE 12:16:01 13° ENE
ARGOS 4.0 12:10:41 10° ESE 12:15:12 28° ENE 12:19:44 10° N
Cosmos 1842 Rocket 4.0 12:12:14 10° SSE 12:16:24 41° E 12:20:37 10° NNE
CZ-2D R/B 3.8 12:13:19 10° SE 12:16:49 34° ENE 12:20:20 10° N
Cosmos 1898 Rocket 4.1 12:12:25 10° NNW 12:17:18 36° NE 12:22:07 10° ESE
H-2A R/B 2.4 12:14:25 10° SE 12:19:17 42° ENE 12:24:04 10° N
Iridium 2 3.8 12:16:38 10° N 12:20:25 80° W 12:24:09 10° S
FengYun 1-2 T 4.3 12:15:07 10° SSE 12:20:44 88° ENE 12:26:20 10° NNW
SMAP 3.0 12:18:57 10° SSE 12:23:36 78° ENE 12:28:17 10° NNW
Sich 1 4.1 12:20:34 10° NNE 12:23:57 22° ENE 12:27:21 10° ESE
Meteor 2-19 Rocket 4.4 12:18:53 10° N 12:24:59 74° ENE 12:31:05 10° SSE
Cosmos 1766 Rocket 4.3 12:21:26 10° NNW 12:25:42 57° W 12:29:58 10° S
PSLV R/B 3.7 12:24:27 10° SSE 12:28:01 51° ENE 12:31:39 10° N
CZ-4C R/B 3.4 12:22:09 10° NW 12:28:11 38° NNE 12:34:07 15° E
USA 307 2.9 12:24:25 10° WSW 12:28:41 76° SSE 12:31:46 18° ENE
Cosmos 1862 4.3 12:25:37 10° NNW 12:29:29 51° W 12:33:21 10° S
Cosmos 1939 Rocket 3.0 12:26:22 10° SSE 12:30:31 85° W 12:34:38 10° NNW
Cosmos 44 3.1 12:26:34 10° NW 12:31:29 84° NE 12:36:04 10° SE
CZ-2C R/B 3.5 12:28:37 10° NE 12:33:01 27° E 12:37:21 10° SSE
Cosmos 2360 Rocket 4.2 12:32:26 10° N 12:34:18 11° NNE 12:36:02 10° NE
Meteor 1-25 Rocket 4.3 12:29:55 10° N 12:35:21 50° ENE 12:40:44 10° SSE
Cosmos 1606 2.6 12:31:36 10° S 12:35:21 84° E 12:39:09 10° NNE
Cosmos 2221 2.4 12:32:43 10° S 12:36:58 73° E 12:41:16 10° NNE
ATLAS CENTAUR R/B 1.9 12:33:17 10° SW 12:37:25 60° NW 12:41:05 15° NE
COSMO-SKYMED 1 3.6 12:37:33 18° NE 12:39:37 26° E 12:43:16 10° SSE
ERBS 2.4 12:37:07 10° SW 12:40:15 53° SE 12:41:41 27° ENE
Cosmos 1464 Rocket 4.1 12:37:23 10° S 12:43:46 90° ESE 12:50:13 10° N
MOS 1-B 4.3 12:38:42 10° SSE 12:44:26 71° ENE 12:50:12 10° NNW
NOSS 2-2 (C) 4.5 12:40:08 10° NW 12:44:32 41° NE 12:48:40 18° E
deb Chang Zheng 4 3.7 12:42:53 10° SE 12:47:01 48° ENE 12:51:11 10° N
NOSS 2-1 (E) 3.1 12:44:19 10° SW 12:47:32 66° NW 12:49:28 23° NE
Okean O Rocket 1.9 12:45:24 10° SE 12:49:36 43° ENE 12:53:50 10° N
USA 308 2.8 12:46:38 10° WSW 12:50:55 88° NNW 12:53:06 28° ENE
Cosmos 2322 Rocket 3.8 12:47:59 10° N 12:51:21 16° NNE 12:52:08 15° NE
Cosmos 2369 4.1 12:45:59 10° NNW 12:51:27 43° NE 12:56:14 13° ESE
USA 267 3.3 12:46:52 18° ENE 12:51:52 75° NNW 12:58:23 10° WSW
Cosmos 1500 3.8 12:51:32 10° N 12:54:54 32° ENE 12:54:54 32° ENE
Nadezhda 4 Rocket 4.2 12:51:01 10° NNW 12:57:20 78° W 13:03:39 10° S
YAOGAN 1 3.5 12:58:55 27° NE 12:58:55 27° NE 13:02:09 10° N
GEOS 3 Rocket 3.5 12:54:28 10° SE 12:59:43 78° NE 13:04:56 10° NW
Meteor 2-14 Rocket 4.5 12:54:19 10° N 13:00:22 56° ENE 13:06:20 10° SSE
Cosmos 1697 Rocket 2.6 12:54:50 10° NNW 13:00:27 66° ENE 13:06:02 10° SE
Cosmos 1980 Rocket 2.6 12:56:49 10° NNW 13:02:13 42° NE 13:05:09 24° ESE
Cosmos 1461 4.2 12:59:40 10° WSW 13:03:29 33° NW 13:05:58 18° NNE
USA 229 DEB 3.9 12:56:36 10° NW 13:03:53 85° NE 13:11:39 10° SE
USA 229 3.9 12:56:42 10° NW 13:03:58 85° NE 13:11:45 10° SE
Cosmos 2333 Rocket 4.2 13:02:30 10° N 13:04:35 12° NNE 13:05:33 11° NNE
ISS -3.8 13:01:49 10° W 13:05:13 79° N 13:05:58 51° ENE
Cosmos 1937 Rocket 3.5 13:00:23 10° NNW 13:05:40 59° ENE 13:10:55 10° SE
SL-16 R/B 3.5 13:01:36 10° NNW 13:05:47 20° NE 13:06:02 20° NE
Cosmos 2084 3.3 13:02:41 10° NW 13:06:58 83° NE 13:09:54 21° SE
Cosmos 1656 4.1 13:01:46 10° NW 13:07:14 65° WSW 13:12:45 10° SSE
Cosmos 1092 Rocket 3.9 13:01:06 10° N 13:07:30 80° E 13:13:51 10° SSE
Cosmos 1763 Rocket 3.5 13:03:48 10° S 13:08:42 52° ESE 13:11:08 28° NE
Cosmos 1743 Rocket 3.6 13:04:41 10° NNW 13:09:03 77° W 13:13:21 10° S
Cosmos 1809 Rocket 4.3 13:03:29 10° N 13:09:37 75° ENE 13:15:42 10° SSE
Cosmos 841 Rocket 4.5 13:06:05 10° SSE 13:09:44 26° ESE 13:09:44 26° ESE
CZ-4 R/B 2.9 13:12:23 21° NNE 13:12:23 21° NNE 13:14:08 10° N
ATLAS 2AS CENTAUR R/B 3.9 13:05:40 10° W 13:12:47 37° NNW 13:17:38 18° NE
Cosmos 2082 Rocket 3.5 13:09:34 10° SSE 13:12:50 22° ESE 13:12:50 22° ESE
Cosmos 1782 3.3 13:12:27 10° SSE 13:15:42 40° ESE 13:15:42 40° ESE
Meteor 2-21 Rocket 4.4 13:10:18 10° N 13:16:21 56° ENE 13:22:18 10° SSE
Cosmos 2278 4.1 13:12:12 10° NNW 13:17:36 40° NE 13:18:56 35° E
COSMOS 2406 3.7 13:13:15 10° S 13:18:33 40° ESE 13:19:43 36° E
USA 305 2.9 13:16:10 10° W 13:20:23 68° NNW 13:21:23 49° NE
Cosmos 1428 Rocket 4.4 13:14:15 10° N 13:20:24 85° E 13:26:33 10° S
Cosmos 1666 Rocket 4.1 13:16:17 10° N 13:19:49 39° NE 13:19:49 39° NE
Cosmos 990 Rocket 4.4 13:16:11 10° NNW 13:21:21 64° WSW 13:26:27 10° S
Feng Yun 1-1 Rocket 4.3 13:18:21 10° SSE 13:24:12 63° ENE 13:30:01 10° N
Cosmos 1340 Rocket 4.1 13:20:56 10° NNW 13:24:47 42° W 13:28:38 10° SSW
Cosmos 1627 Rocket 4.4 13:18:50 10° N 13:25:06 90° ENE 13:31:15 10° S
Cosmos 2034 Rocket 4.4 13:21:05 10° SSW 13:27:12 64° WNW 13:33:20 10° N
NOSS 3-1 (A) 4.2 13:19:54 10° NW 13:27:14 75° SW 13:35:53 10° SSE
SKYMED 2 3.4 13:26:10 35° NNE 13:27:56 73° ESE 13:32:15 10° S
Cosmos 1818 4.3 13:23:40 10° NW 13:28:42 35° NNE 13:29:03 34° NE
NOSS 2-1 (C) 4.3 13:26:02 10° W 13:28:56 29° NNW 13:29:33 27° N
H-2A R/B 4.4 13:32:33 16° N 13:32:33 16° N 13:33:30 10° N
Meteor 1-26 Rocket 4.3 13:27:10 10° S 13:33:01 67° E 13:38:29 13° NNE
Cosmos 372 Rocket 3.9 13:28:04 10° NNW 13:33:17 64° ENE 13:35:07 39° SE
Lacrosse 5 rocket 2.1 13:30:47 10° WNW 13:34:07 36° N 13:34:07 36° N
Cosmos 858 Rocket 4.4 13:29:49 10° NNW 13:35:09 89° ENE 13:40:27 10° SSE
Cosmos 1602 4.2 13:32:14 10° NNW 13:36:03 60° W 13:39:50 10° S
NOSS 2-2 (D) 4.1 13:33:12 10° NW 13:38:05 75° NE 13:40:30 38° ESE
Cosmos 1933 3.4 13:34:03 10° SSW 13:38:06 75° WNW 13:39:36 37° N
MOS 1-B Rocket 3.9 13:33:01 10° NNE 13:38:44 84° WNW 13:44:58 10° SSW
NOSS 2-2 (E) 4.2 13:34:33 10° NW 13:39:36 87° NE 13:43:18 28° SE
Cosmos 2279 Rocket 3.9 13:36:47 10° S 13:42:51 59° E 13:47:08 20° NNE
USA 276 3.8 13:41:13 10° W 13:43:36 31° SW 13:43:36 31° SW
Cosmos 2266 Rocket 4.3 13:38:43 10° N 13:44:15 44° ENE 13:44:15 44° ENE
Cosmos 2360 4.5 13:40:40 10° NW 13:46:23 68° WSW 13:52:03 10° SSE
Cosmos 1833 Rocket 2.5 13:41:23 10° SSW 13:46:59 77° ESE 13:48:24 52° NE
Meteor 1-14 Rocket 4.1 13:42:48 10° N 13:48:35 80° ENE 13:54:28 10° SSE
CZ-4B R/B 4.0 13:44:51 10° S 13:50:09 50° W 13:55:23 10° NNW
Cosmos 44 Rocket 4.3 13:45:30 10° NNW 13:49:09 34° N 13:49:09 34° N
Cosmos 2219 Rocket 4.2 13:49:18 10° N 13:51:09 13° N 13:51:09 13° N
USA 306 3.2 13:48:06 10° W 13:52:01 58° NNW 13:52:01 58° NNW
Cosmos 1634 Rocket 4.0 13:46:29 10° SSW 13:52:49 82° W 13:59:12 10° N
Cosmos 1655 Rocket 4.1 13:48:39 10° N 13:54:54 55° ENE 13:54:54 55° ENE
ARGOS 3.7 13:49:50 10° S 13:55:10 58° W 14:00:32 10° NNW
H-2A R/B 3.7 13:54:06 10° SSW 13:58:49 34° W 14:03:27 10° NNW
COSMOS 2455 3.2 13:54:42 10° S 13:59:29 45° SSE 13:59:29 45° SSE
Sich 1 4.1 13:57:46 10° NNW 14:01:51 44° W 14:05:55 10° SSW
SL-24 R/B - RUBIN 2 3.8 13:57:26 10° NW 14:01:25 64° NW 14:01:25 64° NW
Meteor 2-16 Rocket 4.4 13:57:09 10° NNW 14:03:18 84° W 14:09:24 10° S
Cosmos 468 Rocket 4.4 14:03:28 10° SW 14:08:33 58° WNW 14:10:01 42° N
USA 307 3.8 14:04:31 10° W 14:07:48 46° NW 14:07:48 46° NW
Landsat 5 4.4 14:14:12 47° WSW 14:14:12 47° WSW 14:17:26 10° SSW
CZ-2C R/B 3.2 14:09:48 18° N 14:13:37 52° WNW 14:18:38 10° SW
COSMO-SKYMED 1 3.8 14:14:47 34° NNW 14:15:55 41° WNW 14:19:59 10° SW
ATLAS CENTAUR R/B 3.6 14:13:55 10° WNW 14:17:11 20° NNW 14:17:11 20° NNW
CZ-4C R/B 2.8 14:10:37 10° NW 14:17:38 85° NE 14:19:21 59° SE
Cosmos 540 Rocket 3.6 14:12:40 10° SSW 14:17:20 69° WSW 14:17:20 69° WSW
Cosmos 2180 Rocket 4.3 14:13:21 10° S 14:19:43 82° E 14:19:53 81° ENE
Cosmos 2360 Rocket 3.9 14:15:33 10° NNW 14:17:48 20° N 14:17:48 20° N
ATLAS CENTAUR R/B 2.9 14:18:37 10° WSW 14:25:04 58° WSW 14:25:04 58° WSW
Okean O Rocket 3.7 14:22:23 10° SSW 14:26:06 26° W 14:29:52 10° NW
YAOGAN 1 4.4 14:36:04 28° NW 14:36:04 28° NW 14:38:31 10° NNW
USA 267 3.5 14:34:13 53° N 14:34:33 54° N 14:40:52 10° WNW
Cosmos 2322 Rocket 3.7 14:31:23 10° NNW 14:33:57 26° N 14:33:57 26° N
ISS -0.3 14:38:41 10° W 14:38:57 12° W 14:38:57 12° W
CZ-4 R/B 4.2 14:48:23 14° NW 14:48:23 14° NW 14:49:06 10° NNW
Cosmos 1980 Rocket 3.2 14:40:57 10° NW 14:46:17 43° WSW 14:46:59 41° SW
SL-16 R/B 3.7 14:45:14 10° NNW 14:47:54 29° NNW 14:47:54 29° NNW
Cosmos 2333 Rocket 4.3 14:46:06 10° NNW 14:47:33 16° N 14:47:33 16° N
Cosmos 2082 Rocket 3.6 14:51:50 10° SW 14:54:44 31° SW 14:54:44 31° SW
COSMOS 2406 4.3 14:57:19 10° WSW 15:01:49 41° W 15:01:49 41° W
ATLAS 2AS CENTAUR R/B 4.0 14:59:04 10° NW 15:05:03 31° N 15:05:03 31° N
CZ-4C R/B 4.4 15:59:34 10° WNW 16:04:34 30° W 16:04:34 30° W
Cosmos 2278 Rocket 4.3 22:27:47 22° ENE 22:27:47 22° ENE 22:30:10 10° NE
USA 215 4.3 22:25:46 10° E 22:29:47 40° E 22:29:47 40° E
Cosmos 2344 4.5 23:01:12 27° SSE 23:04:36 41° ESE 23:11:40 10° NE
CENTAUR R/B 4.1 23:24:38 11° S 23:29:28 31° ESE 23:35:22 10° NE
Cosmos 1464 Rocket 4.3 23:36:02 53° S 23:36:02 53° S 23:40:39 10° S
COSMO-SKYMED 1 3.8 23:35:32 10° SE 23:39:34 39° ENE 23:39:58 38° NE
Envisat 4.5 23:41:10 10° NNE 23:45:51 36° E 23:50:31 10° SSE
Cosmos 2082 Rocket 3.4 23:49:12 29° S 23:49:12 29° S 23:51:57 10° S
H-2A R/B 4.4 23:47:26 10° NNE 23:50:45 31° E 23:54:05 10° SSE
